sat.trackr.live / text

‹ back to catalog

UNKNOWN

NORAD 82139

UNKNOWN UNKNOWN UNKNOWN

§ Identity

Operator
Country
Launch date
Launch site
Launch vehicle
Mass (kg)
RCS (m²)

External: N2YO · Heavens-Above

§ Orbital elements

Epoch: 2026-05-22T11:33:50.048928Z

Period
101.68 min
Inclination
99.0100°
Eccentricity
0.0079481
Mean motion
14.16238213 rev/d
Perigee alt
780.7 km
Apogee alt
895.5 km
Semi-major
7,216.2 km
B*
8.1012e-4
RAAN
217.2554°
Arg perigee
306.6241°
Mean anomaly
52.7641°
Rev number
50,286

§ Raw data

UNKNOWN1 82139U          26142.48182927  .00001609  00000+0  81012-3 0  99992 82139  99.0100 217.2554 0079481 306.6241  52.7641 14.16238213502868

JSON: /api/v1/satellites/82139 · /tle

For live sub-satellite position, see the globe view (requires WebGL).

§ Visibility from observer

Set your observer location to see the next 7 days of passes ≥ 10°. The values pass through the URL so the page stays shareable.

No JS? Fill the form by hand. The geolocation button needs JavaScript.